CW7368 Weather Reports


Display with metric or nautical units.
time (UTC)temp
F
wind
direction
speed
MPH
gust
MPH
rain 1hr
in
rain 24hr
in
rain mn
in
humidity
%
barometer
mb
20180226032020 64 311 2.0 5.0 0.00 0.45 0.45 55 1016.9
20180226031520 65 220 0.0 5.0 0.00 0.45 0.45 57 1016.9
20180226031020 64 222 1.0 10.0 0.00 0.45 0.45 57 1016.8
20180226030520 63 208 1.0 5.0 0.00 0.45 0.45 58 1016.6
20180226030020 63 238 0.0 7.0 0.00 0.45 0.45 57 1016.7
20180226025520 64 220 1.0 3.0 0.00 0.45 0.45 58 1016.6
20180226025020 64 191 0.0 3.0 0.00 0.45 0.45 59 1016.5
20180226024520 64 238 0.0 3.0 0.00 0.45 0.45 60 1016.5
20180226024020 64 223 1.0 5.0 0.00 0.45 0.45 59 1016.4
20180226023520 63 224 1.0 5.0 0.00 0.45 0.45 62 1016.3
20180226023020 63 246 1.0 7.0 0.00 0.45 0.45 60 1016.3
20180226022520 64 240 1.0 3.0 0.00 0.45 0.45 59 1016.3
20180226022021 63 201 2.0 3.0 0.00 0.45 0.45 60 1016.1
20180226021520 63 229 1.0 3.0 0.00 0.45 0.45 60 1016.1
20180226021020 63 235 1.0 6.0 0.00 0.45 0.45 60 1016.0
20180226020520 64 206 1.0 7.0 0.00 0.45 0.45 60 1016.0
20180226020020 64 207 1.0 7.0 0.00 0.45 0.45 59 1016.0
20180226015520 64 220 3.0 7.0 0.00 0.45 0.45 57 1016.0
20180226015020 64 240 2.0 10.0 0.00 0.45 0.45 61 1016.0
20180226014520 64 239 1.0 6.0 0.00 0.45 0.45 60 1015.9
20180226014020 64 200 3.0 7.0 0.00 0.45 0.45 59 1016.0
20180226013520 64 191 1.0 10.0 0.00 0.45 0.45 59 1015.8
20180226013020 64 219 2.0 10.0 0.00 0.45 0.45 58 1015.7
20180226012520 64 225 2.0 7.0 0.00 0.45 0.45 59 1015.6
20180226012020 64 254 4.0 10.0 0.00 0.45 0.45 58 1015.5
20180226011520 64 169 3.0 6.0 0.00 0.45 0.45 60 1015.5
20180226011021 64 226 1.0 7.0 0.00 0.45 0.45 61 1015.5
20180226010520 64 234 3.0 13.0 0.00 0.45 0.45 59 1015.5
20180226010020 64 248 2.0 5.0 0.00 0.45 0.45 60 1015.3
20180226005520 63 191 1.0 5.0 0.00 0.45 0.45 61 1015.4
20180226005020 63 236 2.0 8.0 0.00 0.45 0.45 60 1015.3
20180226004520 63 239 4.0 8.0 0.00 0.45 0.45 60 1015.2
20180226004020 63 210 1.0 15.0 0.00 0.45 0.45 63 1015.2
20180226003521 62 226 4.0 12.0 0.00 0.45 0.45 64 1015.0
20180226003020 62 200 3.0 6.0 0.00 0.45 0.45 63 1014.9
20180226002519 62 226 3.0 12.0 0.00 0.45 0.45 63 1014.8
20180226002020 62 198 2.0 7.0 0.00 0.45 0.45 64 1014.8
20180226001520 62 246 2.0 7.0 0.00 0.45 0.45 64 1014.6
20180226001020 62 207 2.0 8.0 0.00 0.45 0.45 65 1014.5
20180226000520 62 215 1.0 6.0 0.00 0.45 0.45 65 1014.4
20180226000020 63 234 3.0 10.0 0.00 0.45 0.45 64 1014.4
20180225235520 62 205 1.0 5.0 0.00 0.45 0.45 66 1014.3
20180225235020 62 217 2.0 7.0 0.00 0.45 0.45 66 1014.1
20180225234519 62 221 1.0 6.0 0.00 0.45 0.45 67 1014.1
20180225234020 62 224 3.0 12.0 0.00 0.45 0.45 67 1013.9
20180225233520 62 248 1.0 9.0 0.00 0.45 0.45 68 1013.8
20180225233020 62 239 2.0 8.0 0.00 0.45 0.45 68 1013.7
20180225232520 62 234 2.0 15.0 0.00 0.45 0.45 70 1013.7
20180225232020 62 221 1.0 6.0 0.00 0.45 0.45 70 1013.6
20180225231520 62 217 3.0 9.0 0.00 0.45 0.45 71 1013.5
20180225231020 61 269 2.0 7.0 0.00 0.45 0.45 72 1013.5
20180225230520 60 232 1.0 6.0 0.00 0.45 0.45 76 1013.4
20180225230020 59 235 2.0 5.0 0.00 0.45 0.45 79 1013.4
20180225225519 58 195 2.0 10.0 0.00 0.45 0.45 82 1013.3
20180225225020 58 223 0.0 6.0 0.00 0.45 0.45 82 1013.3
20180225224520 58 233 1.0 5.0 0.00 0.45 0.45 82 1013.2
20180225224020 58 233 2.0 5.0 0.00 0.45 0.45 84 1013.2
20180225223521 57 217 2.0 6.0 0.02 0.45 0.45 85 1013.1
20180225223020 57 239 1.0 6.0 0.02 0.45 0.45 86 1013.2
20180225222520 57 218 3.0 8.0 0.04 0.45 0.45 86 1013.2
20180225222020 56 236 1.0 9.0 0.06 0.45 0.45 89 1013.0
20180225221520 57 219 2.0 8.0 0.06 0.45 0.45 91 1012.9
20180225221020 57 231 2.0 6.0 0.06 0.45 0.45 93 1012.9
20180225220520 57 236 1.0 5.0 0.06 0.45 0.45 93 1012.8
20180225220020 57 241 1.0 3.0 0.14 0.45 0.45 94 1012.8
20180225215520 57 239 1.0 7.0 0.19 0.45 0.45 95 1012.7
20180225215020 56 231 3.0 10.0 0.19 0.45 0.45 94 1012.7
20180225214521 55 238 1.0 3.0 0.19 0.45 0.45 94 1012.7
20180225214020 55 236 2.0 5.0 0.19 0.45 0.45 93 1012.7
20180225213520 55 230 3.0 8.0 0.17 0.43 0.43 93 1012.7
20180225213020 56 246 2.0 8.0 0.18 0.43 0.43 93 1012.6
20180225212520 56 259 3.0 9.0 0.16 0.41 0.41 94 1012.5
20180225212020 56 247 1.0 6.0 0.18 0.39 0.39 94 1012.3
20180225211520 56 235 1.0 3.0 0.19 0.39 0.39 94 1012.3
20180225211020 56 231 2.0 5.0 0.19 0.39 0.39 93 1012.3
20180225210520 56 242 1.0 5.0 0.19 0.39 0.39 93 1012.3
20180225210020 57 220 3.0 7.0 0.11 0.31 0.31 93 1012.2
20180225205520 57 256 3.0 7.0 0.08 0.26 0.26 94 1011.8
20180225205020 57 258 2.0 3.0 0.08 0.26 0.26 94 1011.7
20180225204520 56 264 2.0 8.0 0.08 0.26 0.26 94 1011.7
20180225204020 56 235 2.0 7.0 0.09 0.26 0.26 94 1011.7
20180225203520 55 261 2.0 7.0 0.09 0.26 0.26 94 1011.6
20180225203020 55 257 0.0 0.0 0.09 0.25 0.25 93 1011.6
20180225202520 55 256 0.0 2.0 0.09 0.25 0.25 93 1011.5
20180225202020 55 257 0.0 3.0 0.05 0.21 0.21 93 1011.5
20180225201519 55 268 0.0 3.0 0.03 0.20 0.20 93 1011.5
20180225201020 55 268 0.0 1.0 0.03 0.20 0.20 93 1011.4
20180225200520 55 268 1.0 7.0 0.03 0.20 0.20 93 1011.2
20180225200020 55 291 2.0 9.0 0.03 0.20 0.20 93 1011.1
20180225195520 55 298 0.0 0.0 0.02 0.18 0.18 94 1011.1
20180225195020 55 298 0.0 1.0 0.02 0.18 0.18 93 1011.2
20180225194520 55 298 0.0 2.0 0.02 0.18 0.18 93 1010.9
20180225194020 55 304 0.0 0.0 0.01 0.17 0.17 93 1010.7
20180225193520 55 304 0.0 0.0 0.00 0.17 0.17 93 1010.2
20180225193020 55 304 0.0 3.0 0.00 0.17 0.17 93 1010.3
20180225192520 55 304 0.0 3.0 0.00 0.17 0.17 93 1010.0
20180225192020 55 304 1.0 3.0 0.01 0.17 0.17 93 1010.1
20180225191520 55 304 0.0 3.0 0.01 0.17 0.17 93 1009.9
20180225191020 55 304 1.0 3.0 0.01 0.17 0.17 93 1010.1
20180225190520 54 313 2.0 5.0 0.01 0.17 0.17 93 1009.9
20180225190020 54 299 2.0 3.0 0.01 0.17 0.17 93 1009.7
20180225185520 54 301 0.0 0.0 0.01 0.17 0.17 93 1008.8
20180225185020 54 302 1.0 3.0 0.01 0.17 0.17 93 1009.2
20180225184519 54 300 0.0 3.0 0.01 0.17 0.17 93 1008.9
20180225184020 54 299 1.0 5.0 0.01 0.17 0.17 93 1009.1
20180225183520 54 312 0.0 6.0 0.01 0.17 0.17 93 1009.0
20180225183020 54 318 1.0 6.0 0.01 0.17 0.17 93 1008.8
20180225182520 54 323 0.0 3.0 0.02 0.17 0.17 93 1008.5
20180225182020 54 326 1.0 5.0 0.01 0.16 0.16 93 1008.9
20180225181520 54 333 1.0 5.0 0.01 0.16 0.16 92 1008.5
20180225181020 54 319 2.0 6.0 0.01 0.16 0.16 93 1008.6
20180225180520 54 332 1.0 21.0 0.01 0.16 0.16 93 1007.9
20180225075020 70 51 2.0 9.0 0.00 0.01 0.01 48 996.9
20180225074520 70 43 4.0 10.0 0.00 0.01 0.01 47 996.7
20180225074020 70 48 2.0 10.0 0.00 0.01 0.01 48 996.5
20180225073520 70 27 3.0 15.0 0.00 0.01 0.01 47 996.5
20180225073019 70 49 4.0 10.0 0.00 0.01 0.01 47 996.5
20180225072520 70 91 6.0 13.0 0.00 0.01 0.01 47 996.3
20180225072020 70 36 6.0 15.0 0.00 0.01 0.01 47 996.5
20180225071520 70 22 5.0 15.0 0.00 0.01 0.01 47 996.4
20180225071020 70 6 3.0 12.0 0.00 0.01 0.01 47 996.5
20180225070520 70 76 4.0 10.0 0.00 0.01 0.01 46 996.6
20180225070020 71 53 4.0 10.0 0.00 0.01 0.01 46 996.5
20180225065520 71 67 6.0 10.0 0.00 0.01 0.01 45 996.5
20180225065020 71 56 5.0 12.0 0.00 0.01 0.01 45 996.5
20180225064520 71 27 6.0 17.0 0.00 0.01 0.01 45 996.6
20180225064020 71 19 4.0 10.0 0.00 0.01 0.01 45 996.6
20180225063520 72 34 6.0 15.0 0.00 0.01 0.01 44 996.6
20180225063019 72 12 6.0 16.0 0.00 0.01 0.01 43 996.8
20180225062520 72 5 5.0 17.0 0.00 0.01 0.01 43 996.9
20180225062020 73 4 4.0 16.0 0.00 0.01 0.01 43 996.8
20180225061520 73 3 6.0 20.0 0.00 0.01 0.01 43 996.8
20180225061020 73 10 5.0 20.0 0.00 0.01 0.01 43 996.7
20180225060520 74 346 6.0 17.0 0.00 0.01 0.01 41 996.6
20180225060020 74 340 5.0 16.0 0.00 0.01 0.01 41 996.5
20180225055520 74 351 6.0 20.0 0.00 0.01 0.01 41 996.5
20180225055020 74 346 7.0 17.0 0.00 0.01 0.01 40 996.4
20180225054520 75 355 7.0 22.0 0.00 0.01 0.01 39 996.3
20180225054020 76 335 9.0 18.0 0.00 0.01 0.01 38 996.5
20180225053520 76 313 6.0 26.0 0.00 0.01 0.01 37 996.6
20180225053020 76 313 7.0 16.0 0.00 0.01 0.01 36 996.6
20180225052519 76 339 9.0 25.0 0.00 0.01 0.01 37 996.4
20180225052020 75 348 7.0 16.0 0.00 0.01 0.01 38 996.3
20180225051519 75 322 8.0 20.0 0.00 0.01 0.01 38 996.4
20180225051020 75 340 12.0 33.0 0.00 0.01 0.01 38 996.4
20180225050520 75 333 9.0 20.0 0.00 0.01 0.01 37 996.4
20180225050020 74 327 9.0 15.0 0.00 0.01 0.01 38 996.3
20180225045520 74 333 6.0 26.0 0.00 0.01 0.01 39 996.3
20180225045020 74 315 7.0 17.0 0.00 0.01 0.01 39 996.5
20180225044519 75 327 9.0 20.0 0.00 0.01 0.01 38 996.5
20180225044019 75 341 6.0 16.0 0.00 0.01 0.01 40 996.7
20180225043520 75 339 7.0 14.0 0.00 0.01 0.01 39 996.8
20180225043020 75 322 3.0 12.0 0.00 0.01 0.01 39 997.1
20180225042520 75 318 3.0 9.0 0.00 0.01 0.01 39 997.2
20180225042020 76 337 1.0 6.0 0.00 0.01 0.01 41 997.2
20180225041520 76 329 2.0 10.0 0.00 0.01 0.01 39 997.3
20180225041019 76 331 2.0 7.0 0.00 0.01 0.01 40 997.6
20180225040520 76 320 2.0 13.0 0.00 0.01 0.01 39 997.6
20180225040019 76 305 3.0 9.0 0.00 0.01 0.01 40 997.7
20180225035519 76 17 1.0 3.0 0.00 0.01 0.01 41 997.7
20180225035020 76 308 2.0 10.0 0.00 0.01 0.01 42 997.8
20180225034519 76 11 2.0 8.0 0.00 0.01 0.01 41 997.8
20180225034020 76 315 2.0 10.0 0.00 0.01 0.01 41 997.9
20180225033520 76 270 2.0 8.0 0.00 0.01 0.01 41 998.1
20180225033020 76 300 3.0 9.0 0.00 0.01 0.01 40 998.1
20180225032520 76 293 0.0 5.0 0.00 0.01 0.01 41 998.1